COSMOS 2513

Last updated on Oct. 23, 2020, 5:56 a.m. UTC

1 41121U 15075A   20296.84176601 -.00000153  00000-0  00000-0 0  9999
2 41121   0.0511 101.2714 0002985 130.3484 183.4169  1.00271617 17837
UTC
Height (km)
Latitude
Longitude
Inclination
Orbital Period
UTC large
Height (km)
Speed (km/s)
/
Latitude / Longitude
Inclination (degrees)
Orbital Period (minutes)
Azimuth
Elevation
Range (km)
Doppler Factor
iOS Compass Heading
iOS Angle

Next 30 passes for location: Hong Kong

Rise time Rise Azimuth (degrees) Set time Set Azimuth (degrees) Duration Max altitude (degrees)

No matching passes for this satellites